Regional Weather Roundup
Issued by NWS

Home | Current Version | Previous Version | Text Only | Print | Product List | Glossary Off
Versions: 1 2 3 4 5 6 7 8 9 10 11 12 13 14 15 16 17 18 19 20 21 22 23 24 25 26 27 28 29 30 31 32 33 34 35 36 37 38 39 40 41 42 43 44 45 46 47 48 49 50

923
ASUS45 KCYS 240610
RWRWY

WYOMING REGIONAL WEATHER ROUNDUP
NATIONAL WEATHER SERVICE CHEYENNE WY
1100 PM MST THU FEB 23 2017

NOTE:  "FAIR" INDICATES FEW OR NO CLOUDS BELOW 12,000 FEET
WITH NO SIGNIFICANT WEATHER AND/OR OBSTRUCTIONS TO VISIBILITY.

WYZ001-240700-
YELLOWSTONE NATIONAL PARK

CITY           SKY/WX    TMP DP  RH WIND       PRES   REMARKS
LK YELLOWSTONE   N/A      8   6  92 CALM      29.74F
6HR MIN TEMP:   8; 6HR MAX TEMP:  17;

W YELLOWSTONE  NOT AVBL

$$
WYZ002>013-054>058-071-098>099-240700-
NORTHERN WYOMING

CITY           SKY/WX    TMP DP  RH WIND       PRES   REMARKS
JACKSON        CLOUDY    19  19 100 S6        29.76R VSB 1   WCI  11
CODY           FLURRIES  20  15  81 NW3       29.89F
GREYBULL       LGT SNOW  26  23  88 NW8       29.90S FOG     WCI  18
6HR MIN TEMP:  26; 6HR MAX TEMP:  29; 6HR PCP: TRACE;

WORLAND        LGT SNOW  24  24 100 CALM      29.90S FOG
6HR MIN TEMP:  24; 6HR MAX TEMP:  27; 6HR PCP:  0.06;

SHERIDAN       LGT SNOW  24  21  88 SE10      29.96S FOG     WCI  14
6HR MIN TEMP:  24; 6HR MAX TEMP:  28; 6HR PCP:  0.01;

BUFFALO        LGT SNOW  21  17  84 CALM      29.92S FOG
6HR MIN TEMP:  21; 6HR MAX TEMP:  24; 6HR PCP:  0.03;

GILLETTE       NOT AVBL
HULETT         FLURRIES  25  21  86 MISG      29.95F
NEWCASTLE      LGT SNOW  23  23 100 N5        29.94S WCI  17

$$
WYZ014>020-022>026-101>103-240700-
CENTRAL WYOMING

CITY           SKY/WX    TMP DP  RH WIND       PRES   REMARKS
BIG PINEY      CLOUDY    17  13  84 SW10      29.76S WCI   5
6HR MIN TEMP:  17; 6HR MAX TEMP:  22; 6HR PCP:  0.01;

PINEDALE       LGT SNOW  19  14  79 CALM      29.77R
DUBOIS         LGT SNOW  14  12  92 SE9       29.75S WCI   2
LANDER         LGT SNOW  19  17  92 N3        29.84S FOG
6HR MIN TEMP:  19; 6HR MAX TEMP:  22; 6HR PCP:  0.16;

RIVERTON       LGT SNOW  19  18  95 NE5       29.85S FOG     WCI  12
6HR MIN TEMP:  19; 6HR MAX TEMP:  22; 6HR PCP:  0.14;

CASPER         CLOUDY    16  14  92 E9        29.85S WCI   4
6HR MIN TEMP:  16; 6HR MAX TEMP:  19; 6HR PCP:  0.01;

DOUGLAS        LGT SNOW  17  15  92 CALM      29.90S FOG
6HR MIN TEMP:  17; 6HR MAX TEMP:  19; 6HR PCP: TRACE;


$$
WYZ021-027>030-104>119-240700-
SOUTHERN WYOMING

CITY           SKY/WX    TMP DP  RH WIND       PRES   REMARKS
EVANSTON       LGT SNOW  17  13  84 W8        29.77R VSB 1   WCI   7
6HR MIN TEMP:  17; 6HR MAX TEMP:  19; 6HR PCP:  0.01;

FORT BRIDGER   LGT SNOW  19  19 100 CALM      29.80S
ROCK SPRINGS   LGT SNOW  18  13  80 N9        29.76S WCI   7
6HR MIN TEMP:  18; 6HR MAX TEMP:  21; 6HR PCP: TRACE;

DIXON            N/A     21  15  76 SW14G21   29.73S WCI   8
RAWLINS        LGT SNOW  13   8  81 NE20      29.71R WCI  -5
6HR MIN TEMP:  13; 6HR MAX TEMP:  17; 6HR PCP: TRACE;

SARATOGA       CLOUDY    18   9  68 SE12      29.69S WCI   5
LARAMIE        LGT SNOW  11   6  81 E3        29.74R
6HR MIN TEMP:  11; 6HR MAX TEMP:  15; 6HR PCP: TRACE;

CHEYENNE       LGT SNOW  14  10  84 N9        29.80S FOG     WCI   2
6HR MIN TEMP:  14; 6HR MAX TEMP:  16; 6HR PCP:  0.02;

TORRINGTON     LGT SNOW  22  18  85 N10       29.89S FOG     WCI  11
6HR MIN TEMP:  21; 6HR MAX TEMP:  22; 6HR PCP: TRACE;

PINE BLUFFS    CLOUDY    19  18  93 N13G21    29.84S WCI   7

$$




USA.gov is the U.S. government's official web portal to all federal, state and local government web resources and services.